This is the latest recevied weather packets stored in our database for station/object IW9DKU-3. If no packets are shown the sender has not sent any weather packets the latest 1 day(s).
| Time | Temp. | Humidity | Pressure | Rain* | Wind** | Luminosity | Snow |
|---|---|---|---|---|---|---|---|
| 1778093639 | 20.56° C | 62% | 1022.9 hPa | - | - | - | - |
| 1778092435 | 20.56° C | 61% | 1022.9 hPa | - | - | - | - |
| 1778088824 | 21.11° C | 61% | 1022.6 hPa | - | - | - | - |
| 1778087620 | 21.11° C | 61% | 1022.4 hPa | - | - | - | - |
| 1778086416 | 21.11° C | 61% | 1022.6 hPa | - | - | - | - |
| 1778081601 | 21.67° C | 60% | 1022.9 hPa | - | - | - | - |
| 1778075582 | 21.67° C | 59% | 1022.9 hPa | - | - | - | - |
| 1778070767 | 22.22° C | 58% | 1023.5 hPa | - | - | - | - |
| 1778065952 | 21.67° C | 59% | 1023.6 hPa | - | - | - | - |
| 1778064748 | 21.67° C | 60% | 1023.7 hPa | - | - | - | - |
| 1778061137 | 21.11° C | 60% | 1024 hPa | - | - | - | - |
| 1778059933 | 21.11° C | 60% | 1024.2 hPa | - | - | - | - |
| 1778055118 | 20.56° C | 61% | 1023.6 hPa | - | - | - | - |
| 1778053914 | 20° C | 61% | 1023.6 hPa | - | - | - | - |
| 1778052710 | 20° C | 62% | 1023.6 hPa | - | - | - | - |
| 1778050303 | 19.44° C | 63% | 1023.9 hPa | - | - | - | - |
| 1778049099 | 19.44° C | 63% | 1023.8 hPa | - | - | - | - |
| 1778046738 | 19.44° C | 63% | 1023.7 hPa | - | - | - | - |
| 1778045915 | 19.44° C | 63% | 1023.2 hPa | - | - | - | - |
| 1778045549 | 19.44° C | 63% | 1023.2 hPa | - | - | - | - |
| 1778045488 | 19.44° C | 63% | 1023.2 hPa | - | - | - | - |
| 1778044284 | 19.44° C | 63% | 1022.9 hPa | - | - | - | - |
| 1778043080 | 19.44° C | 63% | 1022.8 hPa | - | - | - | - |
| 1778041876 | 19.44° C | 62% | 1022.9 hPa | - | - | - | - |
| 1778040673 | 19.44° C | 61% | 1022.9 hPa | - | - | - | - |
* Rain since midnight (hover to see other rain measurements)
** Current wind speed in m/s (hover to see current wind gust speed)